Location: Del Amo
(33.8464°N, 118.2104°W)
Time: 04:15:01
(UTC+00:00)

S-56A Canister/Altair - Pass Details

Date: 13 September 2024
Orbit: 636 x 2487 km, 38.9° (Epoch: 05 October)

Event Time Altitude Azimuth Distance (km) Brightness Sun altitude
Rises 00:51:06 0° 204° (SSW) 2,995 11.0 14.0°
Reaches altitude 10° 00:53:38 10° 189° (S) 2,191 10.1 13.5°
Maximum altitude 00:57:35 23° 136° (SE) 1,682 9.0 12.7°
Drops below altitude 10° 01:02:33 10° 86° (E) 2,812 9.8 11.6°
Sets 01:06:17 0° 73° (ENE) 4,093 10.6 10.9°
